| time (UTC) | temp C | wind direction | speed KPH | gust KPH | rain 1hr cm | rain 24hr cm | rain mn cm | humidity % | barometer mb |
| 20260904051026 | 27 | 190 | 3.2 | 3.2 | 0.00 | 0.00 | 0.00 | 80 | 1014.3 |
| 20260904041025 | 28 | 166 | 0.0 | 1.6 | 0.00 | 0.00 | 0.00 | 78 | 1014.5 |
| 20260904031025 | 28 | 162 | 0.0 | 0.0 | 0.00 | 0.00 | 0.00 | 78 | 1014.8 |
| 20260904021022 | 28 | 142 | 0.0 | 1.6 | 0.00 | 0.00 | 0.00 | 79 | 1014.5 |
| 20260904011033 | 28 | 125 | 0.0 | 0.0 | 0.00 | 0.00 | 0.00 | 80 | 1015.2 |
| 20260904001024 | 30 | 125 | 0.0 | 0.0 | 0.00 | 0.00 | 0.00 | 79 | 1015.0 |
| 20260903231025 | 31 | 125 | 0.0 | 0.0 | 0.00 | 0.00 | 0.00 | 74 | 1014.4 |
| 20260903221040 | 31 | 126 | 0.0 | 0.0 | 0.00 | 0.00 | 0.00 | 67 | 1014.1 |
| 20260903211028 | 34 | 144 | 4.8 | 4.8 | 0.00 | 0.00 | 0.00 | 57 | 1014.3 |
| 20260903201031 | 34 | 181 | 0.0 | 0.0 | 0.00 | 0.00 | 0.00 | 60 | 1014.9 |
| 20260903191015 | 35 | 226 | 0.0 | 0.0 | 0.00 | 0.00 | 0.00 | 62 | 1015.5 |
| 20260903181027 | 35 | 229 | 0.0 | 0.0 | 0.00 | 0.00 | 0.00 | 62 | 1016.5 |
| 20260903171016 | 33 | 321 | 0.0 | 1.6 | 0.00 | 0.00 | 0.00 | 66 | 1017.1 |
| 20260903161018 | 32 | 24 | 3.2 | 3.2 | 0.00 | 0.00 | 0.00 | 68 | 1017.6 |
| 20260903151030 | 31 | 34 | 0.0 | 0.0 | 0.00 | 0.00 | 0.00 | 72 | 1017.6 |
| 20260903141021 | 31 | 27 | 4.8 | 4.8 | 0.00 | 0.00 | 0.00 | 70 | 1017.2 |
| 20260903131017 | 30 | 148 | 0.0 | 0.0 | 0.00 | 0.00 | 0.00 | 74 | 1017.4 |
| 20260903121029 | 26 | 132 | 0.0 | 0.0 | 0.00 | 0.00 | 0.00 | 91 | 1017.7 |
| 20260903111021 | 23 | 75 | 0.0 | 0.0 | 0.00 | 0.00 | 0.00 | 96 | 1017.1 |
| 20260903101012 | 23 | 74 | 0.0 | 0.0 | 0.00 | 0.00 | 0.00 | 95 | 1017.1 |
| 20260903091012 | 23 | 75 | 0.0 | 0.0 | 0.00 | 0.00 | 0.00 | 95 | 1016.6 |
| 20260903081025 | 23 | 47 | 0.0 | 0.0 | 0.00 | 0.00 | 0.00 | 95 | 1016.6 |
| 20260903071049 | 24 | 47 | 0.0 | 0.0 | 0.00 | 0.00 | 0.00 | 94 | 1016.9 |
| 20260903061043 | 24 | 47 | 0.0 | 0.0 | 0.00 | 0.00 | 0.00 | 93 | 1017.1 |